This is the latest recevied weather packets stored in our database for station/object K0QED. If no packets are shown the sender has not sent any weather packets the latest 10 day(s).
| Time | Temp. | Humidity | Pressure | Rain* | Wind** | Luminosity | Snow |
|---|---|---|---|---|---|---|---|
| 1788235514 | 12.22° C | 94% | 1028 hPa | 0 mm | - | 0 W/m² | - |
| 1788235208 | 12.78° C | 94% | 1028.1 hPa | 0 mm | - | 0 W/m² | - |
| 1788234906 | 12.78° C | 94% | 1028 hPa | 0 mm | - | 0 W/m² | - |
| 1788234605 | 12.78° C | 94% | 1027.7 hPa | 0 mm | - | 0 W/m² | - |
| 1788234305 | 12.78° C | 94% | 1028.1 hPa | 0 mm | - | 0 W/m² | - |
| 1788234000 | 12.78° C | 93% | 1028 hPa | 0 mm | - | 0 W/m² | - |
| 1788233698 | 12.78° C | 93% | 1028.1 hPa | 0 mm | - | 0 W/m² | - |
| 1788233397 | 13.33° C | 93% | 1027.9 hPa | 0 mm | - | 0 W/m² | - |
| 1788233092 | 13.33° C | 93% | 1027.9 hPa | 0 mm | - | 0 W/m² | - |
| 1788232787 | 13.33° C | 93% | 1027.7 hPa | 0 mm | - | 0 W/m² | - |
| 1788232483 | 13.33° C | 93% | 1027.9 hPa | 0 mm | - | 0 W/m² | - |
| 1788232182 | 13.33° C | 93% | 1027.5 hPa | 0 mm | - | 0 W/m² | - |
| 1788231878 | 13.33° C | 91% | 1027.5 hPa | 0 mm | - | 0 W/m² | - |
| 1788231577 | 13.33° C | 91% | 1028 hPa | 0 mm | - | 0 W/m² | - |
| 1788231272 | 13.89° C | 92% | 1027.9 hPa | 0 mm | - | 0 W/m² | - |
| 1788230971 | 13.89° C | 91% | 1027.9 hPa | 0 mm | - | 0 W/m² | - |
| 1788230666 | 13.89° C | 91% | 1027.7 hPa | 0 mm | - | 0 W/m² | - |
| 1788230365 | 13.89° C | 89% | 1027.9 hPa | 0 mm | - | 0 W/m² | - |
| 1788230059 | 14.44° C | 86% | 1027.9 hPa | 0 mm | - | 0 W/m² | - |
| 1788229755 | 15° C | 83% | 1028 hPa | 1.27 mm | - | 0 W/m² | - |
| 1788229451 | 16.11° C | 76% | 1028.1 hPa | 1.27 mm | - | 0 W/m² | - |
| 1788229145 | 16.67° C | 72% | 1028.2 hPa | 0 mm | - | 0 W/m² | - |
| 1788228841 | 17.78° C | 67% | 1028 hPa | 0 mm | - | 0 W/m² | - |
| 1788228536 | 18.33° C | 62% | 1027.5 hPa | 0 mm | - | 0 W/m² | - |
| 1788228232 | 18.33° C | 57% | 1027.2 hPa | 0 mm | - | 0 W/m² | - |
* Rain latest hour (hover to see other rain measurements)
** Current wind speed in m/s (hover to see current wind gust speed)